This is the latest recevied weather packets stored in our database for station/object KB0BS-13. If no packets are shown the sender has not sent any weather packets the latest 10 day(s).
| Time | Temp. | Humidity | Pressure | Rain* | Wind** | Luminosity | Snow |
|---|---|---|---|---|---|---|---|
| 1777494445 | 7.78° C | 61% | 1015 hPa | 0 mm | - | 494 W/m² | - |
| 1777494141 | 7.78° C | 61% | 1015 hPa | 0 mm | - | 515 W/m² | - |
| 1777493838 | 7.78° C | 61% | 1014.9 hPa | 0 mm | - | 500 W/m² | - |
| 1777493536 | 7.78° C | 61% | 1015 hPa | 0 mm | - | 514 W/m² | - |
| 1777493234 | 8.33° C | 62% | 1014.9 hPa | 0 mm | - | 564 W/m² | - |
| 1777492930 | 7.78° C | 60% | 1015 hPa | 0 mm | - | 469 W/m² | - |
| 1777492627 | 7.22° C | 62% | 1014.5 hPa | 0 mm | - | 572 W/m² | - |
| 1777492327 | 7.78° C | 61% | 1014.7 hPa | 0 mm | - | 475 W/m² | - |
| 1777492024 | 7.22° C | 62% | 1014.7 hPa | 0 mm | - | 543 W/m² | - |
| 1777491721 | 7.78° C | 64% | 1014.8 hPa | 0 mm | - | 564 W/m² | - |
| 1777491418 | 7.78° C | 62% | 1014.8 hPa | 0 mm | - | 587 W/m² | - |
| 1777491115 | 7.78° C | 60% | 1014.8 hPa | 0 mm | - | 598 W/m² | - |
| 1777490810 | 7.78° C | 60% | 1014.9 hPa | 0 mm | - | 614 W/m² | - |
| 1777490507 | 7.78° C | 60% | 1014.8 hPa | 0 mm | - | 585 W/m² | - |
| 1777490203 | 7.78° C | 59% | 1015 hPa | 0 mm | - | 659 W/m² | - |
| 1777489901 | 7.78° C | 64% | 1014.8 hPa | 0 mm | - | 672 W/m² | - |
| 1777489599 | 7.78° C | 62% | 1015 hPa | 0 mm | - | 541 W/m² | - |
| 1777489295 | 7.78° C | 61% | 1015.2 hPa | 0 mm | - | 589 W/m² | - |
| 1777488992 | 7.78° C | 63% | 1015.1 hPa | 0 mm | - | 553 W/m² | - |
| 1777488689 | 7.78° C | 63% | 1015 hPa | 0 mm | - | 413 W/m² | - |
| 1777488387 | 7.78° C | 63% | 1015.1 hPa | 0 mm | - | 532 W/m² | - |
| 1777488085 | 7.78° C | 64% | 1015 hPa | 0 mm | - | 637 W/m² | - |
| 1777487782 | 7.78° C | 62% | 1015 hPa | 0 mm | - | 616 W/m² | - |
| 1777487480 | 7.78° C | 65% | 1015.1 hPa | 0 mm | - | 564 W/m² | - |
| 1777487177 | 7.78° C | 67% | 1015.2 hPa | 0 mm | - | 607 W/m² | - |
* Rain latest hour (hover to see other rain measurements)
** Current wind speed in m/s (hover to see current wind gust speed)